Погода в Воркуте

Погода в Воркуте : погода сейчас, прогноз погоды и архив. Всё, что Вы хотите узнать о погоде в Воркуте!

Хотите узнать прогноз погоды в Воркуте? Тогда Вам сюда: Погода в Воркуте

Поиск расширенной информации на нашем сайте:

Другие новости

Новости СМИ2

Главная страница сайта

Новости сайта

03.07.2017

Напоминаем, что на нашем специализированном сайте Метеоцентр.Азия вы можете получить высокодетализированные автоматические прогнозы погоды по пунктам России, СНГ и мира в авиационном формате (включающие направление и скорость ветра, видимость, явления погоды, количество и форму облачности, нижнюю и верхнюю границу облачности).


Погода в Воркуте - сегодня

Время (UTC), дата Ветер
(°,м/с) 
Видим.   Явления Облачность Т
(°С)
Тd
(°С)
f(%) Тe
(°С)
Pmin
(гПа)
dP
(гПа)
Po
(мм)
O2
(г/м3)
Тmin Tmax R s Состояние
почвы
03 09.12.17 160 (Ю) 10 км  в посл. час снег  10/10 600 м 
[Sc]
-12.9 -14.2 90 -15  1016.4  0.5  745  316  -13.5    0.3  25  равномерный
сухой снег
100% 
06 09.12.17 170 (Ю) 10 км  {снег}  4/4 600 м 
[Sc]
-14.9 -16.2 90 -15  1017.2  0.6  746  319  -14.9         
09 09.12.17 180 (Ю) 10 км  в посл. час снег  10/10 480 м 
[Sc]
-14.4 -16.4 85 -17  1017.9  0.7  746  319           
12 09.12.17 160 (Ю) 10 км  {снег}  10/0 средняя 
[Ac und]
-14.9 -16.9 85 -15  1018  0.1  746  320           
15 09.12.17 170 (Ю) 8000 м  слаб. снег  10/10 210 м 
[Frnb]
-13.4 -14.7 90 -16  1018.1  0.1  746  318    -12.9  0.0     
18 09.12.17 150 (ЮВ) 3300 м  снег  10/10 330 м 
[Sc]
-12.9 -14.2 90 -15  1017.8  -0.1  746  317           
21 09.12.17 170 (Ю) 6000 м  слаб. снег  10/10 330 м 
[Sc]
-13.2 -14.5 90 -13  1018.2  0.2  747  317           
00 10.12.17 210 (ЮЗ) 7000 м  слаб. снег  10/8 330 м средняя 
[Sc|As op]
-13.8 -15.1 90 -16  1018.6  0.4  747  318           
03 10.12.17 200 (Ю) 7000 м  слаб. снег  10/10 330 м 
[Sc]
-14.2 -15.5 90 -18  1018.9  0.3  747  319  -14.6    0.7  26  равномерный
сухой снег
100% 
06 10.12.17 210 (ЮЗ) 4500 м  слаб. снег  10/10 420 м 
[Sc]
-14.5 -16.5 85 -18  1019.7  0.8  748  320  -14.7         
09 10.12.17 220 (ЮЗ) 10 км  слаб. снег  8/0 средняя 
[As op]
-17.3 -19.2 85 -20  1021.7  1.5  749  324           
12 10.12.17 200 (Ю) 0200 м  туман{снег}  ?/?  
-20.5 -22.4 85 -23  1023.9  750  329           
15 10.12.17 200 (Ю) 0100 м  переохл. туман  ?/?  
-19.9 -21.8 85 -20  1025.6  1.7  752  328    -14  0.4     
21 10.12.17 170 (Ю) 5000 м  слаб. снег  10/10 300 м 
[Sc]
-20.5 -23.1 80 -25  1028.7  1.4  754  330           
00 11.12.17 170 (Ю) 7000 м  слаб. снег  10/8 150 м средняя 
[Frnb|As op]
-20.6 -22.5 85 -21  1029.7  755  331           
03 11.12.17 150 (ЮВ) 10 км  слаб. снег  10/6 120 м средняя 
[Frnb|As op]
-21.1 -23 85 -24  1030.4  0.5  755  331  -21.8    0.3  27  равномерный
сухой снег
100% 
06 11.12.17 160 (Ю) 10 км  {снег}  4/0 средняя 
[Ac lent]
-22.3 -24.2 85 -23  1031.5  756  333  -22.3         
09 11.12.17 тихо ()   6000 м  дымка  10/0 средняя 
[Ac und]
-21.5 -23.3 85 -22  1031.5  756  332           
12 11.12.17 тихо ()   10 км    10/0 средняя 
[Ac und]
-18.4 -20.3 85 -18  1030.7  -0.3  755  328           
15 11.12.17 тихо ()   10 км    10/0 средняя 
[Ac und]
-20.3 -22.2 85 -20  1030.6  -0.3  755  330    -18.4  0.0     
18 11.12.17 170 (Ю) 10 км    10/10 300 м 
[Sc]
-17.2 -19.1 85 -21  1029.7  -0.7  755  326           
21 11.12.17 150 (ЮВ) 5000 м  слаб. снег  10/10 630 м 
[Sc]
-13.4 -15.4 85 -19  1028.4  -1  754  321           
00 12.12.17 190 (Ю) 8-12{13}  10 км  позёмок{снег}  10/10 720 м 
[Sc]
-10 -11.7 87 -16  1027  -1  753  316           
03 12.12.17 190 (Ю) 7{12}  10 км  в посл. час снег  10/10 840 м 
[Sc]
-10.2 -12.2 85 -16  1026.6  -0.4  753  316  -20.7    0.6  26  равномерный
сухой снег
100% 
06 12.12.17 180 (Ю) 7-10{11}  10 км  {снег}  10/0 средняя 
[Ac und]
-9.5 -12.5 79 -15  1027.4  0.8  754  316           
Время (UTC), дата Ветер
(°,м/с) 
Видим.   Явления Облачность Т
(°С)
Тd
(°С)
f(%) Тe
(°С)
Pmin
(гПа)
dP
(гПа)
Po
(мм)
O2
(г/м3)
Тmin Tmax R s Состояние
почвы

Для получения пояснительной информации подведите курсор к названию столбца.

ПОГОДА в Воркуте - архив

Всё, что Вы хотите узнать о погоде в Воркуте - удобно и подробно!

Выберите нужную дату (начиная с 1 января 2015* года) и нажмите кнопку "Найти".
Будут отображены архивные сводки погоды по пункту Воркута, начиная с указанной даты.


Отображать данные в формате CSV (для использования в таблицах Excel)


Внимание! Наш архив погоды предназначен исключительно для личного некоммерческого использования в познавательных целях. Если Вам необходимы официальные справки о состоянии погоды (для производственных, юридических, коммерческих и т.п. целей), обращайтесь в органы Росгидромета.

*Примечание: данная дата относится к архиву по метеостанциям СССР (Россия, СНГ, Балтия).
Архив по метеостанциям Зарубежной Европы и Азии (кроме Китая) хранится 10 дней, по другим регионам земного шара (Китай, Африка, Америка, Австралия, Океания) - 1 день.

Воркута - район местоположения метеостанции


Название, широта, долгота, высота метеостанции:
Воркута 67.5°ш. 64°д. 172 м над ур. моря [Российская Федерация]

Дополнительная информация

В oтличие oт бoльшинства пoгoдных сайтoв мы публикуем пoдрoбную метеoинфoрмацию в детальнoм прoфессиoнальнoм фoрмате.

Характеристики температуры и влажнoсти вoздуха измеряются на высoте 2 м в тени вдали oт зданий и деревьев.
Скoрoсть ветра измеряется на высoте 10 м (на урoвне рoста челoвека скoрoсть ветра ниже в 1.5-2 раза). Если метеoстанция нахoдится в гoрoде или в лесу, тo скoрoсть ветра занижена на 2-4 м/с пo сравнению с oткрытым местoм. Скoрoсть ветра над акватoриями крупных рек и oзёр, а также на вершинах хoлмoв на 2-5 м/с выше, чем в oбычных услoвиях.
Атмoсфернoе давление в разных тoчках местнoсти мoжет значительнo oтличаться oт давления на метеoстанции, в зависимoсти oт услoвий рельефа (при пoдъёме на 10 м давление пoнижается примернo на 1 мм рт.ст.).